This is the latest recevied weather packets stored in our database for station/object SR8WXL-13. If no packets are shown the sender has not sent any weather packets the latest 10 day(s).
| Time | Temp. | Humidity | Pressure | Rain* | Wind** | Luminosity | Snow |
|---|---|---|---|---|---|---|---|
| 1787662555 | 17.78° C | 76% | 1033 hPa | 0 mm | - | - | - |
| 1787661819 | 17.22° C | 73% | 1033.3 hPa | 0 mm | - | - | - |
| 1787660977 | 17.22° C | 74% | 1033.4 hPa | 0 mm | - | - | - |
| 1787660125 | 17.78° C | 71% | 1033.3 hPa | 0 mm | - | - | - |
| 1787659371 | 18.89° C | 70% | 1032.9 hPa | 0 mm | - | - | - |
| 1787658474 | 18.89° C | 69% | 1033 hPa | 0 mm | - | - | - |
| 1787657737 | 18.89° C | 69% | 1033 hPa | 0 mm | - | - | - |
| 1787656861 | 18.89° C | 67% | 1033.2 hPa | 0 mm | - | - | - |
| 1787656080 | 18.89° C | 67% | 1033.2 hPa | 0 mm | - | - | - |
| 1787655207 | 18.89° C | 67% | 1033.1 hPa | 0 mm | - | - | - |
| 1787654398 | 18.89° C | 66% | 1033.3 hPa | 0 mm | - | - | - |
| 1787653644 | 18.89° C | 65% | 1033.1 hPa | 0 mm | - | - | - |
| 1787652871 | 18.89° C | 66% | 1033.1 hPa | 0 mm | - | - | - |
| 1787652055 | 18.89° C | 65% | 1033 hPa | 0 mm | - | - | - |
| 1787651230 | 18.89° C | 66% | 1033.4 hPa | 0 mm | - | - | - |
| 1787650469 | 17.78° C | 68% | 1033.4 hPa | 0 mm | - | - | - |
| 1787649675 | 17.78° C | 69% | 1033.6 hPa | 0 mm | - | - | - |
| 1787648824 | 17.78° C | 70% | 1033.5 hPa | 0 mm | - | - | - |
| 1787647965 | 17.78° C | 69% | 1033.5 hPa | 0 mm | - | - | - |
| 1787647098 | 17.78° C | 69% | 1033.8 hPa | 0 mm | - | - | - |
| 1787646274 | 17.78° C | 67% | 1033.7 hPa | 0 mm | - | - | - |
| 1787645479 | 17.78° C | 67% | 1033.6 hPa | 0 mm | - | - | - |
| 1787644605 | 17.22° C | 70% | 1033.8 hPa | 0 mm | - | - | - |
| 1787643779 | 17.22° C | 70% | 1033.8 hPa | 0 mm | - | - | - |
| 1787643010 | 17.22° C | 72% | 1033.9 hPa | 0 mm | - | - | - |
* Rain latest hour (hover to see other rain measurements)
** Current wind speed in m/s (hover to see current wind gust speed)